#timestamp,LO_Frequency,Hit,StdDev 
1502769615.8,286047001.0,N,1.1
1502769635.7,286047000.7,N,1.2
1502769655.5,286047001.2,N,1.2
1502769675.4,286047000.8,N,1.2
1502769695.2,286047000.7,N,1.2
1502769715.0,286046998.4,N,1.2
1502769715.9,286046998.4,N,1.2
1502769735.8,286046998.2,N,1.2
1502769755.6,286046998.2,N,1.1
1502769775.5,286047000.8,N,1.2
1502769795.3,286047000.6,N,1.2
1502769815.1,286047000.1,N,1.2
1502769835.9,286047002.0,N,1.3
1502769855.7,286047002.5,N,1.4
1502769875.6,286047002.5,N,1.4
1502769895.4,286047002.3,N,1.5
1502769915.2,286047002.2,N,1.5
1502769935.1,286047002.1,N,1.6
1502769936.0,286047002.1,N,1.6
1502769955.8,286047003.6,N,1.7
1502769975.6,286047003.9,N,1.8
1502769995.5,286047003.8,N,1.9
1502770015.3,286047003.1,N,2.0
1502770035.2,286047003.2,N,2.0
1502770055.0,286047003.6,N,2.0
1502770055.9,286047003.6,N,2.0
1502770075.7,286047003.1,N,1.9
1502770095.6,286047003.1,N,1.9
1502770115.4,286047003.5,N,1.8
1502770135.3,286047005.5,Y,0.0
1502770155.1,286047003.9,P,1.2
1502770175.8,286047003.8,P,1.1
1502770195.7,286047004.0,P,1.0
1502770215.5,286047004.1,Y,0.0
1502770235.4,286047000.6,P,1.4
1502770255.2,286047000.6,N,1.3
1502770275.0,286047000.4,N,1.2
1502770275.9,286047000.4,N,1.1
1502770295.8,286047002.7,N,1.2
1502770315.6,286046999.7,N,1.3
1502770335.5,286047002.4,N,1.2
1502770355.3,286047000.0,N,1.2
1502770375.1,286047001.9,N,1.2
1502770395.9,286046999.7,N,1.2
1502770415.7,286046999.8,N,1.2
1502770435.5,286047000.1,N,1.2
1502770455.4,286047000.2,N,1.2
1502770475.2,286047000.2,N,1.1
1502770495.1,286047000.1,N,1.1
1502770496.0,286047000.1,N,1.1
1502770515.8,286047000.2,N,1.1
1502770535.6,286047002.0,N,1.1
1502770555.5,286047001.9,N,1.1
1502770575.3,286047001.5,N,1.1
1502770595.2,286047001.7,N,1.1
1502770615.9,286047004.4,Y,0.0
1502770635.7,286047002.6,P,0.9
1502770655.6,286046999.7,N,1.2
1502770675.4,286047002.8,N,1.3
1502770695.3,286046999.7,N,1.3
1502770715.1,286046999.7,N,1.3
1502770716.0,286046999.7,N,1.3
1502770735.8,286047002.1,N,1.3
1502770755.7,286047001.6,N,1.3
1502770775.5,286047004.0,Y,0.0
1502770795.4,286047001.9,P,0.5
1502770815.2,286047002.4,P,0.6
1502770835.0,286047002.8,P,0.7
1502770835.9,286047002.8,Y,0.0
1502770855.8,286046998.2,P,1.9
1502770875.6,286046998.9,N,1.7
1502770895.5,286047000.3,N,1.5
1502770915.3,286046998.1,N,1.5
1502770935.1,286047000.9,N,1.5
1502770955.9,286047001.1,N,1.4
1502770975.7,286046998.3,N,1.4
1502770995.5,286047000.6,N,1.4
1502771015.4,286046998.2,N,1.4
1502771035.2,286046998.1,N,1.4
1502771055.1,286046998.2,N,1.4
1502771056.0,286046998.2,N,1.4
1502771075.8,286047000.8,N,1.4
1502771095.6,286047001.1,N,1.4
1502771115.5,286047000.5,N,1.4
1502771135.3,286047000.9,N,1.4
1502771155.2,286046999.7,N,1.3
1502771175.9,286046999.9,N,1.3
1502771195.7,286047001.0,N,1.3
1502771215.6,286046999.9,N,1.3
1502771235.4,286047000.2,N,1.2
1502771255.3,286047002.8,N,1.4
1502771275.1,286047000.1,N,1.3
1502771276.0,286047000.1,N,1.3
1502771295.8,286047000.0,N,1.3
1502771315.7,286047000.6,N,1.3
1502771335.5,286047001.2,N,1.3
1502771355.4,286047000.3,N,1.2
1502771375.2,286047000.0,N,1.2
1502771395.0,286047000.1,N,1.2
1502771395.9,286047000.1,N,1.1
1502771415.8,286046999.7,N,1.1
1502771435.6,286047000.3,N,1.1
1502771455.5,286047000.3,N,1.0
1502771475.3,286047011.9,Y,0.0
1502771495.1,286047000.2,P,0.0
1502771515.9,286047000.3,P,0.1
1502771535.7,286047000.3,P,0.1
1502771555.6,286047002.8,Y,0.0
1502771575.4,286047000.0,P,0.1
1502771595.2,286047002.8,P,1.3
1502771615.1,286046999.7,N,1.2
1502771616.0,286046999.7,N,1.2
1502771635.8,286046999.9,N,1.1
1502771655.7,286047000.1,N,1.0
1502771675.5,286046999.8,N,1.0
1502771695.3,286047000.2,N,0.9
1502771715.2,286047000.1,N,0.9
1502771735.0,286047002.4,N,1.0
1502771735.9,286047002.4,N,1.1
1502771755.8,286046999.9,N,1.1
1502771775.6,286047002.7,N,1.2
1502771795.4,286047002.7,N,1.3
1502771815.3,286047002.6,N,1.3
1502771835.1,286047004.3,Y,0.0
1502771855.9,286047000.1,P,0.4
1502771875.7,286047000.4,N,0.4
1502771895.5,286047000.7,N,0.3
1502771915.4,286046999.7,N,0.4
1502771935.2,286047002.3,Y,0.0
1502771955.1,286047000.6,P,0.1
1502771956.0,286047000.6,P,0.1
1502771975.8,286047000.5,P,0.1
1502771995.6,286047000.0,N,0.2
1502772015.5,286047000.8,Y,0.0
1502772035.3,286047000.9,P,0.2
1502772055.2,286047000.6,N,0.2
1502772075.0,286046998.1,P,1.1
1502772075.9,286046998.1,N,1.3
1502772095.8,286047001.0,N,1.3
1502772115.6,286047001.0,N,1.2
1502772135.4,286047000.6,N,1.2
1502772155.3,286047001.0,N,1.1
1502772175.1,286047000.6,N,1.1
1502772195.9,286047000.9,N,1.1
1502772215.7,286047000.6,N,1.0
1502772235.5,286047000.5,N,1.0
1502772255.4,286047000.2,N,0.9
1502772275.2,286047002.4,N,1.0
1502772295.0,286047000.1,N,1.0
1502772295.9,286047000.1,N,1.0
1502772315.8,286047000.2,N,1.0
1502772335.6,286047001.0,N,0.9
1502772355.5,286047001.1,N,0.9
1502772375.3,286047000.9,N,0.9
1502772395.1,286046998.6,N,1.0
1502772415.9,286047000.6,N,1.0
1502772435.7,286047000.0,N,0.9
1502772455.6,286046998.1,N,1.0
1502772475.4,286047000.4,N,1.0
1502772495.2,286047000.3,N,1.0
1502772515.1,286046999.8,N,1.0
1502772516.0,286046999.8,N,1.0
1502772535.8,286047002.5,N,1.0
1502772555.7,286047000.5,N,1.0
1502772575.5,286047000.0,N,1.0
1502772595.3,286046999.9,N,1.0
1502772615.2,286047000.4,N,0.9
1502772635.0,286046999.7,N,0.8
1502772635.9,286046999.7,N,0.9
1502772655.8,286047002.7,Y,0.0
1502772675.6,286047000.9,P,0.3
1502772695.4,286046999.9,N,0.4
1502772715.3,286047002.4,P,0.9
1502772735.1,286047000.5,N,0.9
1502772755.9,286046999.7,N,0.9
1502772775.7,286047002.6,N,1.1
1502772795.5,286047002.4,N,1.1
1502772815.4,286047002.2,N,1.1
1502772835.2,286047000.1,N,1.1
1502772855.0,286047001.5,N,1.1
1502772856.0,286047001.5,N,1.0
1502772875.8,286047001.6,N,1.0
1502772895.6,286047002.5,N,1.0
1502772915.5,286047001.8,N,1.0
1502772935.3,286047002.2,N,1.0
1502772955.1,286047002.2,N,1.0
1502772975.9,286047001.8,N,0.9
1502772995.7,286047004.4,Y,0.0
1502773015.6,286047002.7,P,0.6
1502773035.4,286047002.2,P,0.5
1502773055.2,286047002.4,P,0.5
1502773075.1,286047002.6,Y,0.0
1502773076.0,286047002.6,P,0.2
1502773095.8,286047000.7,P,0.8
1502773115.7,286047000.9,N,0.8
1502773135.5,286047000.8,N,0.8
1502773155.3,286047000.8,N,0.8
1502773175.2,286047000.9,N,0.7
1502773195.0,286046998.2,N,1.2
1502773195.9,286046998.2,N,1.4
